1307494227456,0.000147625
1307494287456,0.000149100
1307494347456,0.000149734
1307494407456,0.000148278
1307494467456,0.000148725
1307497827466,0.000145679
1307497887466,0.000146708
1307497947466,0.000147389
1307498007466,0.000146918
1307498067466,0.000146392
1307501427476,0.000146962
1307501487476,0.000147366
1307501547476,0.000148290
1307501607476,0.000146655
1307501667476,0.000146730
1307505027486,0.000146779
1307505087486,0.000148167
1307505147486,0.000149034
1307505207486,0.000146948
1307505267486,0.000146668
1307508627495,0.000147980
1307508687495,0.000146718
1307508747495,0.000146699
1307508807496,0.000148354
1307508867496,0.000147426
1307512227505,0.000147157
1307512287505,0.000147347
1307512347505,0.000148585
1307512407505,0.000146527
1307512467505,0.000148819
1307515827514,0.000145975
1307515887514,0.000147170
1307515947514,0.000146688
1307516007514,0.000146866
1307516067514,0.000146559
1307519427523,0.000145978
1307519487523,0.000146647
1307519547523,0.000144734
1307519607523,0.000146715
1307519667523,0.000145424
1307519727523,0.000145700
1307519787523,0.000148119
1307519847523,0.000146782
1307519907523,0.000145936
1307519967523,0.000146200
1307520027532,0.000146594
1307520087532,0.000146149
1307520147532,0.000147014
1307520207532,0.000145807
1307520267532,0.000146516
1307520327532,0.000147251
1307520387532,0.000147988
1307520447532,0.000145834
1307520507532,0.000146787
1307520567532,0.000146725
1307520627532,0.000144702
1307520687532,0.000147085
1307520747532,0.000148399
1307520807532,0.000146018
1307520867532,0.000146429
1307520927532,0.000146540
1307520987532,0.000145797
1307521047532,0.000146541
1307521107532,0.000144589
1307521167532,0.000144977
1307521227532,0.000146471
1307521287532,0.000144462
1307521347532,0.000145659
1307521407532,0.000146368
1307521467532,0.000145220
1307521527532,0.000144394
1307521587532,0.000146331
1307521647532,0.000144800
1307521707532,0.000145462
1307521767532,0.000144483
1307521827532,0.000144009
1307521887532,0.000145618
1307521947532,0.000143990
1307522007532,0.000145357
1307522067532,0.000144975
1307522127532,0.000145415
1307522187532,0.000144320
1307522247532,0.000144695
1307522307532,0.000144679
1307522367532,0.000144379
1307522427532,0.000144639
1307522487532,0.000149626
1307522547532,0.000144899
1307522607532,0.000144785
1307522667532,0.000145465
1307522727532,0.000144029
1307522787532,0.000144933
1307522847532,0.000144830
1307522907532,0.000144423
1307522967532,0.000144523
1307523027532,0.000145984
1307523087532,0.000144701
1307523147532,0.000144997
1307523207532,0.000144785
1307523267532,0.000144870
1307523327532,0.000144793
1307523387532,0.000144144
1307523447532,0.000144251
1307523507532,0.000143939
1307523567532,0.000144153
1307523627541,0.000145307
1307523687541,0.000144626
1307523747541,0.000143101
1307523807541,0.000145304
1307523867541,0.000143702
1307523927541,0.000145350
1307523987541,0.000145845
1307524047541,0.000144148
1307524107541,0.000144164
1307524167541,0.000145364
1307524227541,0.000146554
1307524287541,0.000144475
1307524347541,0.000144419
1307524407541,0.000144426
1307524467541,0.000146528
1307524527541,0.000144830
1307524587541,0.000143916
1307524647541,0.000142813
1307524707541,0.000142699
1307524767541,0.000144995
1307524827541,0.000143879
1307524887541,0.000143974
1307524947541,0.000144304
1307525007541,0.000143368
1307525067541,0.000144486
1307525127541,0.000143437
1307525187541,0.000144200
1307525247541,0.000144789
1307525307541,0.000145868
1307525367541,0.000144967
1307525427541,0.000145104
1307525487541,0.000144376
1307525547541,0.000144062
1307525607541,0.000144714
1307525667541,0.000143010
1307525727541,0.000142432
1307525787541,0.000143900
1307525847541,0.000144086
1307525907541,0.000144476
1307525967541,0.000143210
1307526027541,0.000143633
1307526087541,0.000144354
1307526147541,0.000143800
1307526207541,0.000143835
1307526267541,0.000145524
1307526327541,0.000143898
1307526387541,0.000145043
1307526447541,0.000144441
1307526507541,0.000144268
1307526567541,0.000146405
1307526627541,0.000146010
1307526687541,0.000144048
1307526747541,0.000145208
1307526807541,0.000145180
1307526867541,0.000144159
1307526927541,0.000145760
1307526987541,0.000144427
1307527047541,0.000143360
1307527107541,0.000144756
1307527167541,0.000144115
1307527227550,0.000143928
1307527287550,0.000144281
1307527347550,0.000143394
1307527407550,0.000143695
1307527467550,0.000145589
1307527527550,0.000144773
1307527587550,0.000144352
1307527647550,0.000144092
1307527707550,0.000144136
1307527767550,0.000144763
1307527827550,0.000143502
1307527887550,0.000145045
1307527947550,0.000143290
1307528007550,0.000144213
1307528067550,0.000143805
1307528127550,0.000144117
1307528187550,0.000145002
1307528247550,0.000143842
1307528307550,0.000143702
1307528367550,0.000144089
1307528427550,0.000145484
1307528487550,0.000144344
1307528547550,0.000143881
1307528607550,0.000143970
1307528667550,0.000144261
1307528727550,0.000143439
1307528787550,0.000143670
1307528847550,0.000144338
1307528907550,0.000144158
1307528967550,0.000143094
1307529027550,0.000145773
1307529087550,0.000145143
1307529147550,0.000143333
1307529207550,0.000144700
1307529267550,0.000145467
1307529327550,0.000144878
1307529387550,0.000144085
1307529447550,0.000144426
1307529507550,0.000144117
1307529567550,0.000143583
1307529627550,0.000144279
1307529687550,0.000144090
1307529747550,0.000143774
1307529807550,0.000143431
1307529867550,0.000144957
1307529927550,0.000143758
1307529987550,0.000143557
1307530047550,0.000144081
1307530107550,0.000143731
1307530167550,0.000143806
1307530227550,0.000144164
1307530287550,0.000144074
1307530347550,0.000143411
1307530407550,0.000143309
1307530467550,0.000144113
1307533827559,0.000142352
1307533887559,0.000143071
1307533947559,0.000143632
1307534007559,0.000142865
1307534067559,0.000144459
1307537427568,0.000144096
1307537487568,0.000144422
1307537547568,0.000142207
1307537607568,0.000144886
1307537667568,0.000144231
1307541027578,0.000143678
1307541087578,0.000145967
1307541147578,0.000143457
1307541207578,0.000143663
1307541267578,0.000144564
1307544627587,0.000144321
1307544687587,0.000143388
1307544747587,0.000143779
1307544807587,0.000143696
1307544867587,0.000143529
1307548227596,0.000145988
1307548287596,0.000144156
1307548347596,0.000145814
1307548407596,0.000143898
1307548467596,0.000143659
1307551827605,0.000147227
1307551887605,0.000146705
1307551947605,0.000147914
1307552007605,0.000147054
1307552067605,0.000147074
1307555427614,0.000145204
1307555487614,0.000146320
1307555547614,0.000146112
1307555607614,0.000147904
1307555667614,0.000146889
1307559027624,0.000145499
1307559087624,0.000145091
1307559147624,0.000145905
1307559207624,0.000145589
1307559267624,0.000146098
1307562627634,0.000146977
1307562687634,0.000146993
1307562747634,0.000147062
1307562807634,0.000147510
1307562867634,0.000147584
1307566227645,0.000147136
1307566287645,0.000148354
1307566347645,0.000148712
1307566407645,0.000148272
1307566467645,0.000146671
1307569827655,0.000147438
1307569887655,0.000147728
1307569947655,0.000148993
1307570007655,0.000146066
1307570067655,0.000146344
1307573427666,0.000146262
1307573487666,0.000145850
1307573547666,0.000146115
1307573607666,0.000145683
1307573667666,0.000145326
1307577027677,0.000146037
1307577087677,0.000146272
1307577147677,0.000146871
1307577207677,0.000145725
1307577267677,0.000147072
